FW1477 Weather Reports


Display with metric or nautical units.
time (UTC)temp
F
wind
direction
speed
MPH
gust
MPH
rain 1hr
in
rain 24hr
in
rain mn
in
humidity
%
barometer
mb
20260507004015 78 0.0 0.0 0.00 0.00 0.00 19 1016.5
20260507003016 79 0.0 0.0 0.00 0.00 0.00 19 1016.3
20260507002015 79 0.0 0.0 0.00 0.00 0.00 18 1016.8
20260507001015 79 0.0 0.0 0.00 0.00 0.00 18 1016.5
20260507000016 80 0.0 0.0 0.00 0.00 0.00 18 1016.5
20260506235015 80 0.0 0.0 0.00 0.00 0.00 18 1016.2
20260506234015 81 0.0 0.0 0.00 0.00 0.00 17 1016.4
20260506233015 82 0.0 0.0 0.00 0.00 0.00 17 1016.4
20260506230015 82 0.0 0.0 0.00 0.00 0.00 16 1016.1
20260506225032 82 0.0 0.0 0.00 0.00 0.00 15 1016.1
20260506224035 83 0.0 0.0 0.00 0.00 0.00 15 1016.6
20260506223018 83 0.0 0.0 0.00 0.00 0.00 15 1016.5
20260506222016 84 0.0 0.0 0.00 0.00 0.00 14 1016.5
20260506221017 85 0.0 0.0 0.00 0.00 0.00 13 1016.9
20260506220037 84 0.0 0.0 0.00 0.00 0.00 13 1016.4
20260506215017 85 0.0 0.0 0.00 0.00 0.00 13 1016.9
20260506214018 85 0.0 0.0 0.00 0.00 0.00 12 1016.9
20260506213017 85 0.0 0.0 0.00 0.00 0.00 12 1017.0
20260506212017 85 0.0 0.0 0.00 0.00 0.00 12 1016.9
20260506211016 85 0.0 0.0 0.00 0.00 0.00 11 1017.0
20260506210018 86 0.0 0.0 0.00 0.00 0.00 11 1017.2
20260506205016 85 0.0 0.0 0.00 0.00 0.00 11 1017.2
20260506204017 85 0.0 0.0 0.00 0.00 0.00 10 1017.3
20260506203016 85 0.0 0.0 0.00 0.00 0.00 11 1017.6
20260506202017 85 0.0 0.0 0.00 0.00 0.00 11 1017.6
20260506201016 85 0.0 0.0 0.00 0.00 0.00 10 1017.7
20260506200037 85 0.0 0.0 0.00 0.00 0.00 11 1017.8
20260506195017 84 0.0 0.0 0.00 0.00 0.00 10 1017.7
20260506194017 85 0.0 0.0 0.00 0.00 0.00 10 1017.9
20260506193036 85 0.0 0.0 0.00 0.00 0.00 10 1018.3
20260506192016 85 0.0 0.0 0.00 0.00 0.00 10 1017.9
20260506191017 85 0.0 0.0 0.00 0.00 0.00 10 1017.9
20260506190057 84 0.0 0.0 0.00 0.00 0.00 10 1017.8
20260506185016 84 0.0 0.0 0.00 0.00 0.00 9 1018.1
20260506184017 83 0.0 0.0 0.00 0.00 0.00 9 1018.2
20260506183016 83 0.0 0.0 0.00 0.00 0.00 8 1018.4
20260506182016 83 0.0 0.0 0.00 0.00 0.00 9 1018.5
20260506181021 83 0.0 0.0 0.00 0.00 0.00 9 1018.6
20260506180016 83 0.0 0.0 0.00 0.00 0.00 8 1018.7
20260506175016 83 0.0 0.0 0.00 0.00 0.00 8 1018.8
20260506174016 82 0.0 0.0 0.00 0.00 0.00 8 1018.4
20260506173017 82 0.0 0.0 0.00 0.00 0.00 7 1018.5
20260506172016 82 0.0 0.0 0.00 0.00 0.00 7 1018.5
20260506171017 81 0.0 0.0 0.00 0.00 0.00 8 1018.5
20260506170016 80 0.0 0.0 0.00 0.00 0.00 7 1018.2
20260506165018 80 0.0 0.0 0.00 0.00 0.00 8 1018.2
20260506164016 80 0.0 0.0 0.00 0.00 0.00 8 1018.2
20260506163016 79 0.0 0.0 0.00 0.00 0.00 8 1018.2
20260506162016 78 0.0 0.0 0.00 0.00 0.00 9 1017.9
20260506161037 78 0.0 0.0 0.00 0.00 0.00 9 1018.0
20260506160016 76 0.0 0.0 0.00 0.00 0.00 10 1017.8
20260506155016 76 0.0 0.0 0.00 0.00 0.00 11 1017.9
20260506154016 74 0.0 0.0 0.00 0.00 0.00 13 1017.5
20260506153016 73 0.0 0.0 0.00 0.00 0.00 15 1017.7
20260506152016 72 0.0 0.0 0.00 0.00 0.00 16 1017.2
20260506151016 71 0.0 0.0 0.00 0.00 0.00 18 1017.4
20260506150016 70 0.0 0.0 0.00 0.00 0.00 20 1017.1
20260506145015 70 0.0 0.0 0.00 0.00 0.00 22 1017.2
20260506144016 69 0.0 0.0 0.00 0.00 0.00 23 1017.4
20260506143015 68 0.0 0.0 0.00 0.00 0.00 23 1016.9
20260506142037 68 0.0 0.0 0.00 0.00 0.00 23 1017.0
20260506141015 67 0.0 0.0 0.00 0.00 0.00 23 1016.9
20260506140016 67 0.0 0.0 0.00 0.00 0.00 25 1016.4
20260506135016 66 0.0 0.0 0.00 0.00 0.00 27 1016.3
20260506134017 64 0.0 0.0 0.00 0.00 0.00 37 1016.0
20260506133036 63 0.0 0.0 0.00 0.00 0.00 42 1016.0
20260506132015 62 0.0 0.0 0.00 0.00 0.00 46 1015.5
20260506131020 60 0.0 0.0 0.00 0.00 0.00 48 1015.0
20260506130035 58 0.0 0.0 0.00 0.00 0.00 52 1014.5
20260506125015 58 0.0 0.0 0.00 0.00 0.00 56 1014.5
20260506124030 57 0.0 5.0 0.00 0.00 0.00 57 1014.4
20260506122015 57 180 1.0 6.0 0.00 0.00 0.00 59 1014.3
20260506121016 58 180 1.0 6.0 0.00 0.00 0.00 57 1014.2
20260506120015 59 180 1.0 6.0 0.00 0.00 0.00 53 1014.5
20260506115015 59 270 1.0 7.0 0.00 0.00 0.00 52 1014.5
20260506114015 60 248 1.0 8.0 0.00 0.00 0.00 54 1014.6
20260506113016 60 248 3.0 11.0 0.00 0.00 0.00 53 1014.5
20260506112016 60 248 4.0 14.0 0.00 0.00 0.00 55 1014.5
20260506111017 60 248 2.0 12.0 0.00 0.00 0.00 57 1014.3
20260506110037 60 225 1.0 8.0 0.00 0.00 0.00 57 1014.4
20260506105038 60 0.0 0.0 0.00 0.00 0.00 59 1014.5
20260506103017 60 248 1.0 6.0 0.00 0.00 0.00 60 1014.5
20260506102018 60 0.0 0.0 0.00 0.00 0.00 60 1014.5
20260506101017 60 248 1.0 6.0 0.00 0.00 0.00 61 1014.5
20260506100017 60 248 2.0 10.0 0.00 0.00 0.00 62 1014.6
20260506095017 60 225 2.0 9.0 0.00 0.00 0.00 61 1014.5
20260506094039 60 248 3.0 8.0 0.00 0.00 0.00 60 1014.5
20260506093018 60 248 2.0 8.0 0.00 0.00 0.00 60 1014.6
20260506092037 60 248 1.0 7.0 0.00 0.00 0.00 58 1014.7
20260506091017 61 248 3.0 14.0 0.00 0.00 0.00 57 1015.2
20260506090017 61 248 6.0 18.0 0.00 0.00 0.00 57 1015.2
20260506085016 61 248 4.0 15.0 0.00 0.00 0.00 56 1015.3
20260506084017 61 248 3.0 13.0 0.00 0.00 0.00 55 1015.3
20260506083017 61 248 3.0 12.0 0.00 0.00 0.00 53 1015.4
20260506082037 62 248 2.0 10.0 0.00 0.00 0.00 52 1015.5
20260506081018 62 248 5.0 14.0 0.00 0.00 0.00 51 1015.3
20260506073017 64 248 3.0 7.0 0.00 0.00 0.00 46 1016.0
20260506072016 64 248 2.0 6.0 0.00 0.00 0.00 44 1016.1
20260506062016 66 0.0 0.0 0.00 0.00 0.00 41 1016.7
20260506061026 66 0.0 0.0 0.00 0.00 0.00 42 1016.7
20260506045016 69 0.0 5.0 0.00 0.00 0.00 36 1017.2
20260506044038 69 225 2.0 7.0 0.00 0.00 0.00 35 1017.0
20260506043016 69 225 3.0 10.0 0.00 0.00 0.00 34 1016.8
20260506042016 70 225 2.0 9.0 0.00 0.00 0.00 33 1016.9
20260506041016 70 248 4.0 11.0 0.00 0.00 0.00 32 1016.7
20260506040017 71 248 4.0 10.0 0.00 0.00 0.00 31 1016.9
20260506035016 71 248 3.0 14.0 0.00 0.00 0.00 30 1016.7
20260506034036 71 0.0 0.0 0.00 0.00 0.00 29 1016.5
20260506033016 72 0.0 0.0 0.00 0.00 0.00 28 1016.4
20260506032056 72 0.0 0.0 0.00 0.00 0.00 27 1016.4
20260506031016 73 0.0 0.0 0.00 0.00 0.00 26 1016.4
20260506030016 73 0.0 0.0 0.00 0.00 0.00 25 1016.8
20260506025016 74 0.0 0.0 0.00 0.00 0.00 24 1016.7
20260506024017 74 0.0 0.0 0.00 0.00 0.00 23 1016.7
20260506023016 75 0.0 0.0 0.00 0.00 0.00 22 1016.5
20260506022017 75 0.0 0.0 0.00 0.00 0.00 21 1016.8
20260506021016 76 0.0 0.0 0.00 0.00 0.00 20 1016.6
20260506020016 76 0.0 0.0 0.00 0.00 0.00 18 1016.5
20260506015036 77 0.0 0.0 0.00 0.00 0.00 17 1016.7
20260506014016 78 0.0 0.0 0.00 0.00 0.00 16 1016.4
20260506013017 79 0.0 0.0 0.00 0.00 0.00 13 1016.4
20260506010016 80 0.0 0.0 0.00 0.00 0.00 10 1016.1
20260506005017 81 0.0 0.0 0.00 0.00 0.00 9 1016.4